Home > Weather > Sanandaj > Past weeks

Flag for Iran Past Weather in Sanandaj, Iran — Yesterday and Last 2 Weeks

Now
81 °F

Passing clouds.


Feels Like: 79 °F
Forecast: 59 / 92 °F
Wind: 9 mph from North

Location: Sanandaj Airport

Current Time: Aug 24, 2016 at 1:45:09 AM

Latest Report: Aug 24, 2016 at 12:22 AM


Visibility: N/A

Pressure: 30.01 "Hg (25.29 "Hg at 1502m altitude)

Humidity: 14%

Dew Point: 27 °F

Location of SanandajLocation

Past Weather in Sanandaj — Graph

°F

Sanandaj Temperature Yesterday

Maximum temperature yesterday: 97 °F (at 3:30 PM)
Minimum temperature yesterday: 59 °F (at 6:54 AM)
Average temperature yesterday: 80 °F

High & Low Weather Summary for the Past Weeks

 TemperatureHumidityPressure
High104 °F (Aug 10, 4:21 PM)49% (Aug 12, 4:32 AM)30.09 "Hg (Aug 12, 4:32 AM)
Low59 °F (Aug 15, 7:30 AM)3% (Aug 14, 4:30 PM)29.77 "Hg (Aug 17, 5:25 PM)
Average84 °F17%29.95 "Hg
* Reported Aug 9 12:25 AM — Aug 24 12:22 AM, Sanandaj, Weather by CustomWeather, © 2016

Note: Actual official high and low records may vary slightly from our data, if they occured in-between our weather recording intervals... More about our weather records

Advertising

Sanandaj Weather History for the Previous 24 Hours

Scroll right to see more
 ConditionsComfort  
Time TempWeatherWind HumidityBarometerVisibility
12:22 AM
Wed, Aug 24
81 °FPassing clouds.9 mph14%30.01 "HgN/A
11:21 PM
Tue, Aug 23
81 °FPassing clouds.5 mph15%30.01 "HgN/A
10:30 PM86 °FPassing clouds.5 mph12%29.98 "HgN/A
9:22 PM84 °FScattered clouds.5 mph15%29.92 "HgN/A
8:23 PM82 °FScattered clouds.2 mph23%29.98 "HgN/A
7:24 PM90 °FScattered clouds.No wind15%29.95 "HgN/A
6:26 PM95 °FScattered clouds.2 mph9%29.95 "HgN/A
5:30 PM95 °FScattered clouds.5 mph8%29.98 "HgN/A
4:24 PM97 °FPassing clouds.5 mph8%29.98 "HgN/A
3:30 PM97 °FPassing clouds.5 mph8%30.01 "HgN/A
2:30 PM95 °FPassing clouds.5 mph9%30.01 "HgN/A
1:30 PM91 °FPassing clouds.2 mph11%30.04 "HgN/A
12:30 PM90 °FSunny.2 mph12%30.07 "Hg10 mi
11:30 AM86 °FSunny.2 mph12%30.07 "Hg10 mi
10:30 AM82 °FSunny.7 mph16%30.07 "Hg10 mi
10:00 AM79 °FPassing clouds.5 mph18%30.09 "HgN/A
9:30 AM77 °FPassing clouds.7 mph19%30.09 "HgN/A
9:00 AM75 °FPassing clouds.7 mph19%30.09 "HgN/A
8:30 AM68 °FPassing clouds.No wind28%30.09 "HgN/A
7:30 AM61 °FPassing clouds.No wind36%30.09 "HgN/A
6:54 AM59 °FPassing clouds.2 mph42%30.07 "HgN/A
6:25 AM61 °FClear.2 mph39%30.07 "Hg10 mi
5:22 AM63 °FClear.2 mph34%30.07 "Hg10 mi
4:26 AM64 °FClear.2 mph32%30.04 "Hg10 mi
3:25 AM70 °FClear.No wind25%30.04 "Hg10 mi
2:25 AM77 °FClear.2 mph18%30.04 "Hg10 mi
1:23 AM77 °FClear.5 mph18%30.04 "Hg10 mi
Weather by CustomWeather, © 2016

See weather overviewHow to use our weather pages